ARIANE 44LP DEB, 25542

Orbit data source: Space-Track

ARIANE 44LP DEB, 25542 is space debris in HEO originally from a launch on Sun, 11 Dec 1988 UTC launched from the French Guiana (FRGUI). Debris objects in space refer to the collection of defunct objects orbiting the Earth. Examples of debris include non-operational satellites, rocket bodies, and fragments generated from explosions, collisions, or faulty payload assembly.

Loading next visibility...
Identifier
25542, 1988-109J
Orbit
HEO
Last TLE update
18 hours ago
Origin
Manufacturer
Unknown
Mission
Spacecraft
Bus & Motor
Unknown
Mass
Unknown
Launch date (UTC)
1988-12-11 (37 years ago)
Launch vehicle
Unknown
Launch site
French Guiana (FRGUI)
Object type
Payload
Rocket body
Debris
Shape & HBR
Unknown
Radar Cross Section
8.100 m², Large (>1 m²)

Expand to show TLE details & history

TLE from 18 hours ago
0 ARIANE 44LP DEB
1 25542U 88109J   25183.80919873  .00000157  00000-0  11427-2 0  9998
2 25542   7.2881 328.0964 7143728 234.7767  37.0026  2.33279793230307
Epoch: 2025-07-02T19:25Z
TLE epoch observation values (Epoch: 2025-07-02T19:25:14.77Z)
Latitude
0.00002°
Longitude
115.85363°
Altitude
13,698.072 km
Speed
4.807 km/s
True Right ascension
21h 53m 00s
True Declination
0° 00' 00"
Sunlit
Object was in daylight at epoch
Visualization orbit readout
Latitude
7.25876°
Longitude
-147.31666°
Altitude
18,788.822 km
Speed
3.883 km/s
Apparent Right ascension
04h 57m 56s
Apparent Declination
-2° 20' 30"
Sunlit
Object is in daylight
Visualization observer readout
Local Sidereal Time
01:12:20
Azimuth
114.888° SE
Elevation
23.443°
Doppler factor
1
Orbital elements
Apogee altitude
34,801.617 km
Perigee altitude
482.715 km
Semi-major axis
24,020.303 km
Eccentricity
0.71437
Inclination
7.2881°
RAAN
328.0964°
Arg. of periapsis
234.7767°
True anomaly
Unknown
Mean anomaly
37.0026°
Eccentric anomaly
Unknown
Mean motion
0.58301 °/min
Orbital period
617.49 mins
BSTAR
0.0011427
Loading maneuver chart data...
Loading SW <> Apogee altitude chart data...
Loading historical data...
Loading historical data...
Loading historical data...
Loading historical data...
Loading historical data...
Loading historical data...
Loading historical data...

ARIANE 44LP DEB Visibility forecast

Observer location: undefined°, undefined°

Span
Click to sort rows by Start time (UTC) header in descending order
Start Az.
Max El. time (UTC)
Max El. Az.
Max El.
End time (UTC)
End Az.
35 mins2025-07-03 13:25:30.654Z114.915° SE2025-07-03 13:25:30.654Z114.915° SE21.683°2025-07-03 14:00:30.654Z108.139° ESE
65 mins2025-07-04 12:20:30.654Z235.007° WSW2025-07-04 13:25:30.654Z223.791° SW28.778°2025-07-04 13:25:30.654Z223.791° SW
|